This is the latest recevied weather packets stored in our database for station/object OE3APM-13. If no packets are shown the sender has not sent any weather packets the latest 10 day(s).
| Time | Temp. | Humidity | Pressure | Rain* | Wind** | Luminosity | Snow |
|---|---|---|---|---|---|---|---|
| 1777888855 | 21.67° C | 45% | 1014.9 hPa | 0 mm | - | 733 W/m² | - |
| 1777888555 | 21.67° C | 48% | 1014.9 hPa | 0 mm | - | 909 W/m² | - |
| 1777888252 | 21.11° C | 48% | 1014.9 hPa | 0 mm | - | 824 W/m² | - |
| 1777887949 | 20.56° C | 46% | 1014.9 hPa | 0 mm | - | 875 W/m² | - |
| 1777887647 | 20.56° C | 48% | 1014.9 hPa | 0 mm | - | 798 W/m² | - |
| 1777887348 | 20.56° C | 47% | 1014.9 hPa | 0 mm | - | 471 W/m² | - |
| 1777887047 | 20.56° C | 47% | 1015 hPa | 0 mm | - | 541 W/m² | - |
| 1777886749 | 20.56° C | 48% | 1015 hPa | 0 mm | - | 636 W/m² | - |
| 1777886447 | 20° C | 52% | 1015 hPa | 0 mm | - | 603 W/m² | - |
| 1777886145 | 20° C | 50% | 1015.1 hPa | 0 mm | - | 504 W/m² | - |
| 1777885844 | 20° C | 50% | 1015.1 hPa | 0 mm | - | 729 W/m² | - |
| 1777885544 | 19.44° C | 50% | 1015.1 hPa | 0 mm | - | 691 W/m² | - |
| 1777885244 | 19.44° C | 50% | 1015.1 hPa | 0 mm | - | 700 W/m² | - |
| 1777884945 | 18.89° C | 53% | 1015.1 hPa | 0 mm | - | 687 W/m² | - |
| 1777884641 | 18.89° C | 50% | 1015.1 hPa | 0 mm | - | 636 W/m² | - |
| 1777884334 | 18.33° C | 52% | 1015.2 hPa | 0 mm | - | 603 W/m² | - |
| 1777884033 | 18.33° C | 54% | 1015.2 hPa | 0 mm | - | 580 W/m² | - |
| 1777883733 | 18.33° C | 55% | 1015.2 hPa | 0 mm | - | 538 W/m² | - |
| 1777883433 | 18.33° C | 54% | 1015.2 hPa | 0 mm | - | 487 W/m² | - |
| 1777883133 | 18.33° C | 55% | 1015.2 hPa | 0 mm | - | 439 W/m² | - |
| 1777882833 | 17.78° C | 59% | 1015.2 hPa | 0 mm | - | 397 W/m² | - |
| 1777882531 | 17.78° C | 55% | 1015.1 hPa | 0 mm | - | 387 W/m² | - |
| 1777882231 | 17.78° C | 54% | 1015 hPa | 0 mm | - | 355 W/m² | - |
| 1777881932 | 17.78° C | 54% | 1015 hPa | 0 mm | - | 327 W/m² | - |
| 1777881634 | 17.78° C | 54% | 1015 hPa | 0 mm | - | 357 W/m² | - |
* Rain latest hour (hover to see other rain measurements)
** Current wind speed in m/s (hover to see current wind gust speed)